[[{"header":{"parameterUnit":"m.s-1","parameterCategory":1,"la1":30.2991,"la2":30.254,"lo1":-89.0895,"lo2":-89.0444,"dy":0.0017,"dx":0.0017,"nx":28,"ny":28,"refTime":"2024-03-30T03:00:00:Z","depth":0,"parameterNumber":2,"parameterNumberName":"U-component_of_WINDS"},"data":[0,0,0,0,0,0,0,0,0,0,0,0,0,0,0,0,0,0,0,0,0,0,0,0,0,0,0,0,0,0,0,0,0,0,0,0,0,0,0,0,0,0,0,0,0,0,0,0,0,0,0,0,0,0,0,0,0,0,-3.3568,-3.3569,0,-3.367,-3.3671,-3.3672,-3.3693,-3.3692,-3.3691,-3.369,-3.3793,-3.3796,-3.3799,0,0,0,0,0,0,0,0,0,0,0,0,0,-3.3392,-3.3395,-3.3568,-3.3569,-3.3571,-3.367,-3.3671,-3.3672,-3.3693,-3.3692,-3.3691,-3.369,-3.3792,-3.3796,-3.38,0,0,0,0,0,0,0,0,0,0,0,0,0,-3.3478,-3.3396,-3.3568,-3.3593,-3.3596,-3.3669,-3.3671,-3.3673,-3.3693,-3.3692,-3.3691,-3.3689,-3.379,-3.3795,-3.38,-3.3856,0,0,-3.3816,-3.3818,0,0,0,0,0,0,0,0,-3.3473,-3.3485,-3.3588,-3.3591,-3.3595,-3.3667,-3.3646,-3.3734,-3.3693,-3.3656,-3.369,-3.3689,-3.3752,-3.376,-3.3782,-3.386,-3.3865,-3.3817,-3.382,-3.3822,-3.3823,0,0,0,0,0,0,0,-3.3467,-3.348,-3.3608,-3.3589,-3.3594,-3.3599,-3.361,-3.3663,-3.3709,-3.3659,-3.3661,-3.3673,-3.3754,-3.3777,-3.3784,-3.3866,-3.3816,-3.3821,-3.3824,-3.3826,-3.3997,-3.3998,0,0,0,0,0,0,-3.3457,-3.3475,-3.3605,-3.3611,-3.353,-3.3603,-3.3615,-3.3645,-3.3709,-3.3717,-3.3674,-3.3673,-3.3768,-3.3778,-3.3788,-3.3857,-3.3822,-3.3827,-3.383,-3.3995,-3.3997,-3.3998,0,0,0,0,0,0,-3.3453,-3.3468,-3.3601,-3.3544,-3.3561,-3.3607,-3.3641,-3.3648,-3.3671,-3.372,-3.3728,-3.3689,-3.3768,-3.3781,-3.3839,-3.386,-3.3829,-3.3834,-3.3994,-3.3996,-3.3998,-3.3994,0,0,0,0,0,0,-3.3448,-3.3467,-3.3488,-3.3544,-3.3564,-3.365,-3.3642,-3.3651,-3.368,-3.3681,-3.3736,-3.3744,-3.3768,-3.3831,-3.3844,-3.3867,-3.3838,-3.3992,-3.3995,-3.3997,-3.3993,-3.3996,-3.3999,0,0,0,0,0,-3.3442,-3.3482,-3.3489,-3.3504,-3.3592,-3.3651,-3.3663,-3.369,-3.3682,-3.3703,-3.3735,-3.3742,-3.3857,-3.3837,-3.3852,-3.3876,-3.399,-3.3994,-3.3997,-3.3991,-3.3995,-3.3999,0,0,0,0,0,0,-3.3426,-3.349,-3.3498,-3.3558,-3.36,-3.3655,-3.3683,-3.3693,-3.3737,-3.3735,-3.3767,-3.378,-3.3836,-3.3863,-3.3839,-3.3934,-3.3923,-3.3929,-3.3914,-3.3918,-3.3921,-3.3913,-3.3842,0,0,0,0,0,-3.343,-3.3474,-3.3527,-3.3575,-3.3596,-3.3636,-3.3663,-3.3681,-3.3724,-3.3741,-3.3777,-3.3819,-3.3864,-3.3893,-3.3938,-3.3998,-3.401,-3.4023,-3.4026,-3.4028,-3.4032,-3.4066,-3.4072,-3.4009,-3.4009,-3.4009,0,0,-3.3438,-3.3479,-3.3504,-3.3573,-3.3607,-3.3651,-3.365,-3.3696,-3.3729,-3.3748,-3.3805,-3.3833,-3.3882,-3.3942,-3.397,-3.3965,-3.4053,-3.4032,-3.4034,-3.4037,-3.407,-3.4076,-3.4082,-3.4011,-3.4011,-3.401,0,0,-3.3475,-3.351,-3.3554,-3.3589,-3.364,-3.3667,-3.3678,-3.3733,-3.3752,-3.3811,-3.3826,-3.3866,-3.3943,-3.3977,-3.4005,-3.4058,-3.4066,-3.4072,-3.4087,-3.412,-3.4125,-3.413,-3.4148,-3.4154,-3.4076,-3.4076,-3.4076,0,-3.3477,-3.3544,-3.3575,-3.3621,-3.3652,-3.3673,-3.3717,-3.3749,-3.3813,-3.3833,-3.3828,-3.3927,-3.3961,-3.4029,-3.4042,-3.4065,-3.4077,-3.4064,-3.4122,-3.4127,-3.4132,-3.4149,-3.4156,-3.4077,-3.4077,-3.4077,-3.4077,0,-3.3545,-3.3592,-3.3621,-3.3683,-3.3717,-3.3762,-3.38,-3.3831,-3.3847,-3.3874,-3.3934,-3.3976,-3.403,-3.4048,-3.4064,-3.4119,-3.4115,-3.4116,-3.4105,-3.4137,-3.4154,-3.4161,-3.4077,-3.4077,-3.4077,-3.4077,0,0,-3.3571,-3.3652,-3.3662,-3.369,-3.3751,-3.3787,-3.3834,-3.3888,-3.3913,-3.3958,-3.3997,-3.4064,-3.4066,-3.4097,-3.4117,-3.4146,-3.4185,-3.4144,-3.4146,-3.4149,-3.4248,-3.4245,-3.4253,-3.4192,-3.4194,-3.4195,-3.4244,0,-3.3614,-3.3698,-3.3728,-3.3798,-3.3841,-3.3863,-3.3904,-3.3946,-3.3974,-3.4015,-3.4046,-3.4092,-3.4091,-3.4111,-3.4141,-3.4174,-3.4205,-3.4171,-3.4228,-3.423,-3.4213,-3.4262,-3.4259,-3.4302,-3.425,-3.4252,-3.4253,0,-3.3674,-3.372,-3.3793,-3.3849,-3.3869,-3.3905,-3.3957,-3.3997,-3.4045,-3.4063,-3.4099,-3.4118,-3.4168,-3.4157,-3.4227,-3.4203,-3.4229,-3.4249,-3.4251,-3.4256,-3.4241,-3.4266,-3.4317,-3.4323,-3.4263,-3.4263,-3.4262,0,-3.3684,-3.3764,-3.3819,-3.3843,-3.391,-3.3935,-3.3964,-3.4011,-3.4042,-3.4088,-3.4108,-3.416,-3.4187,-3.4227,-3.4259,-3.4248,-3.4325,-3.4317,-3.4341,-3.434,-3.4354,-3.4352,-3.4409,-3.4374,-3.4374,-3.4374,-3.4374,0,-3.3727,-3.3771,-3.3825,-3.3858,-3.3908,-3.3943,-3.3992,-3.4023,-3.4065,-3.4105,-3.4128,-3.4165,-3.4206,-3.4248,-3.4274,-3.4328,-3.434,-3.4356,-3.4362,-3.4353,-3.4351,-3.4368,-3.4365,-3.4376,-3.4376,-3.4375,-3.4375,0,-3.3745,-3.3783,-3.3844,-3.3904,-3.392,-3.3954,-3.4005,-3.4038,-3.4069,-3.4119,-3.4133,-3.418,-3.4231,-3.4268,-3.4334,-3.4351,-3.4409,-3.4415,-3.4392,-3.4395,-3.4417,-3.4413,-3.4484,-3.4495,-3.4455,-3.4456,-3.4456,0,-3.3769,-3.3803,-3.3867,-3.3896,-3.3925,-3.3971,-3.4003,-3.404,-3.4072,-3.4131,-3.4157,-3.4211,-3.4255,-3.4336,-3.4376,-3.4427,-3.4434,-3.4456,-3.4441,-3.4431,-3.4433,-3.4429,-3.4433,-3.4456,-3.4457,-3.4457,-3.4457,0,-3.3806,-3.3824,-3.3869,-3.3922,-3.396,-3.4003,-3.4046,-3.4068,-3.4113,-3.4149,-3.4202,-3.4236,-3.4305,-3.4357,-3.4413,-3.4443,-3.4457,-3.4462,-3.447,-3.446,-3.4444,-3.4452,-3.4396,-3.4459,-3.4459,-3.4459,-3.4459,-3.4459,-3.3827,-3.3859,-3.3909,-3.3959,-3.3996,-3.4037,-3.4071,-3.4107,-3.4152,-3.4211,-3.423,-3.4285,-3.4334,-3.441,-3.4442,-3.4485,-3.4484,-3.4496,-3.4499,-3.4501,-3.45,-3.444,-3.4496,-3.4496,-3.4496,-3.4496,-3.4496,0,-3.3865,-3.3899,-3.3945,-3.4005,-3.4045,-3.4058,-3.4107,-3.4139,-3.4187,-3.4232,-3.4276,-3.4337,-3.4389,-3.4434,-3.4488,-3.4514,-3.4523,-3.4527,-3.4524,-3.4531,-3.4498,-3.4485,-3.452,-3.452,-3.452,-3.452,-3.452,-3.452,-3.3889,-3.3943,-3.3967,-3.4041,-3.4075,-3.4129,-3.4156,-3.4194,-3.423,-3.4298,-3.4341,-3.4371,-3.4417,-3.4474,-3.4522,-3.4535,-3.4552,-3.4555,-3.4568,-3.4536,-3.4533,-3.453,-3.4518,-3.4559,-3.4559,-3.4598,-3.4598,-3.4598]},{"header":{"parameterUnit":"m.s-1","parameterCategory":1,"la1":30.2991,"la2":30.254,"lo1":-89.0895,"lo2":-89.0444,"dy":0.0017,"dx":0.0017,"nx":28,"ny":28,"refTime":"2024-03-30T03:00:00:Z","depth":0,"parameterNumber":3,"parameterNumberName":"V-component_of_WINDS"},"data":[0,0,0,0,0,0,0,0,0,0,0,0,0,0,0,0,0,0,0,0,0,0,0,0,0,0,0,0,0,0,0,0,0,0,0,0,0,0,0,0,0,0,0,0,0,0,0,0,0,0,0,0,0,0,0,0,0,0,2.8095,2.8096,0,2.8227,2.8229,2.823,2.8316,2.8317,2.8317,2.8318,2.8449,2.8451,2.8454,0,0,0,0,0,0,0,0,0,0,0,0,0,2.7915,2.7918,2.8095,2.8096,2.8098,2.8227,2.8229,2.8231,2.8316,2.8317,2.8317,2.8318,2.8448,2.8451,2.8455,0,0,0,0,0,0,0,0,0,0,0,0,0,2.8014,2.7919,2.8094,2.8156,2.8163,2.8227,2.8229,2.8231,2.8316,2.8317,2.8318,2.8318,2.8446,2.8451,2.8455,2.8466,0,0,2.8469,2.8471,0,0,0,0,0,0,0,0,2.8009,2.8021,2.8146,2.8152,2.816,2.8256,2.8213,2.831,2.8316,2.8258,2.8318,2.8319,2.8384,2.8393,2.8416,2.8472,2.8477,2.8469,2.8472,2.8474,2.8475,0,0,0,0,0,0,0,2.8002,2.8016,2.8147,2.8147,2.8156,2.8177,2.8192,2.8232,2.8314,2.8263,2.8269,2.8284,2.8388,2.8412,2.842,2.8479,2.8469,2.8473,2.8476,2.8477,2.8556,2.8556,0,0,0,0,0,0,2.7985,2.8009,2.8143,2.8151,2.8085,2.818,2.8197,2.8224,2.8314,2.8329,2.8283,2.8288,2.8404,2.8414,2.8425,2.8447,2.8474,2.8478,2.848,2.8557,2.8556,2.8556,0,0,0,0,0,0,2.7981,2.7996,2.8137,2.8082,2.8102,2.8182,2.8212,2.8226,2.8251,2.833,2.8344,2.8293,2.8405,2.8418,2.8457,2.8452,2.848,2.8484,2.8558,2.8557,2.8556,2.8488,0,0,0,0,0,0,2.7976,2.7994,2.7999,2.8082,2.8104,2.8167,2.8212,2.8228,2.8259,2.8266,2.8342,2.8356,2.8406,2.8449,2.8461,2.8459,2.8487,2.8558,2.8557,2.8556,2.8491,2.8485,2.848,0,0,0,0,0,2.7969,2.7972,2.7999,2.8014,2.8112,2.8166,2.8179,2.8239,2.8258,2.8264,2.8315,2.8353,2.8451,2.8453,2.8466,2.8465,2.8559,2.8557,2.8556,2.8493,2.8486,2.848,0,0,0,0,0,0,2.7884,2.7984,2.8014,2.8045,2.8097,2.8181,2.8189,2.8228,2.8274,2.8279,2.8349,2.8366,2.8398,2.8435,2.8435,2.8483,2.851,2.8511,2.8457,2.8451,2.8445,2.8436,2.8491,0,0,0,0,0,2.7869,2.7906,2.7991,2.801,2.8035,2.8108,2.8133,2.8175,2.8231,2.8253,2.8307,2.8359,2.8402,2.8428,2.8472,2.8497,2.8517,2.8504,2.8498,2.8493,2.8493,2.8514,2.851,2.8551,2.8551,2.8551,0,0,2.7838,2.7897,2.7916,2.7994,2.8039,2.8076,2.8125,2.816,2.8189,2.8258,2.8299,2.834,2.8403,2.8436,2.8453,2.8469,2.8487,2.8492,2.8487,2.849,2.8512,2.8508,2.8505,2.855,2.8551,2.8551,0,0,2.7801,2.7848,2.7872,2.7917,2.7987,2.8036,2.8041,2.8121,2.8153,2.8195,2.8249,2.8284,2.8355,2.8399,2.8431,2.8416,2.8454,2.8428,2.8399,2.8418,2.8415,2.8412,2.841,2.8408,2.8428,2.8428,2.8428,0,2.7753,2.7811,2.7878,2.7912,2.7947,2.8014,2.8039,2.8079,2.8158,2.818,2.8197,2.8292,2.8338,2.8385,2.8382,2.8405,2.8415,2.8419,2.841,2.8408,2.8407,2.8405,2.8404,2.8425,2.8425,2.8426,2.8426,0,2.7751,2.7791,2.7801,2.788,2.7915,2.7943,2.8015,2.8043,2.8083,2.8131,2.8176,2.8235,2.8294,2.8308,2.8346,2.8361,2.8369,2.8397,2.8425,2.8398,2.8398,2.8398,2.842,2.8421,2.8422,2.8423,0,0,2.766,2.7779,2.7782,2.7821,2.7905,2.7937,2.797,2.8031,2.8054,2.8107,2.8139,2.82,2.8229,2.8264,2.8308,2.8325,2.8314,2.8351,2.8354,2.8344,2.8338,2.8318,2.8316,2.834,2.834,2.834,2.8334,0,2.7637,2.7702,2.7765,2.7808,2.7848,2.7915,2.7945,2.8,2.8046,2.8087,2.8138,2.8182,2.8214,2.8237,2.8257,2.8311,2.8314,2.8312,2.837,2.8372,2.8353,2.8315,2.8293,2.8283,2.8334,2.8334,2.8334,0,2.7617,2.7672,2.7719,2.7804,2.7823,2.7849,2.7912,2.7949,2.8014,2.8048,2.8091,2.8139,2.8179,2.8203,2.826,2.8258,2.8286,2.8317,2.8318,2.8326,2.8351,2.8324,2.8281,2.828,2.8334,2.8334,2.8334,0,2.755,2.7635,2.7676,2.7706,2.7805,2.7822,2.7864,2.793,2.7964,2.8019,2.8042,2.81,2.8131,2.8176,2.8239,2.825,2.829,2.8319,2.832,2.8318,2.8325,2.8324,2.8288,2.8341,2.8341,2.8341,2.8341,0,2.7518,2.7545,2.7648,2.7672,2.7706,2.7779,2.7809,2.7857,2.7916,2.7953,2.8013,2.8046,2.8127,2.8169,2.8218,2.826,2.8273,2.8302,2.8315,2.8297,2.8294,2.8317,2.8319,2.834,2.8341,2.8341,2.8341,0,2.7448,2.7517,2.7567,2.7659,2.7682,2.7703,2.7782,2.7809,2.7861,2.7907,2.7921,2.8002,2.8056,2.8124,2.8198,2.8232,2.8269,2.8287,2.8247,2.8255,2.8253,2.8253,2.8231,2.8233,2.8283,2.8282,2.8282,0,2.7423,2.7446,2.7542,2.7572,2.7613,2.7659,2.7696,2.777,2.7805,2.7884,2.7902,2.7962,2.8013,2.8096,2.8161,2.8219,2.8241,2.823,2.825,2.8233,2.8244,2.8242,2.8246,2.8224,2.8223,2.8223,2.8222,0,2.7373,2.7408,2.7458,2.7523,2.7565,2.7618,2.7674,2.7695,2.7781,2.7818,2.7875,2.7915,2.7994,2.8053,2.812,2.8164,2.8208,2.8216,2.8219,2.8202,2.8178,2.8194,2.8235,2.8215,2.8216,2.8217,2.8217,2.8217,2.7326,2.7352,2.7425,2.7481,2.7532,2.7584,2.7616,2.7674,2.7723,2.7795,2.7835,2.7892,2.7961,2.8057,2.8099,2.8145,2.8161,2.8165,2.8167,2.8167,2.8163,2.8171,2.8157,2.8157,2.8158,2.8158,2.8158,0,2.7281,2.7333,2.7384,2.7463,2.7507,2.7548,2.7613,2.7647,2.7697,2.7758,2.7809,2.7877,2.7936,2.8008,2.8071,2.8095,2.8117,2.8109,2.8108,2.8118,2.8144,2.8135,2.809,2.809,2.809,2.809,2.809,2.809,2.7263,2.731,2.7354,2.7427,2.7479,2.7537,2.7571,2.762,2.767,2.7744,2.7794,2.7842,2.7908,2.7978,2.8034,2.8054,2.8075,2.8062,2.8088,2.811,2.8116,2.8121,2.8114,2.8065,2.8065,2.8059,2.8059,2.8059]}]]